Location: Cahas Mountain Overlook
(37.0833°N, 80.1000°W)
Time: 01:11:57
(UTC-05:00)

Courier 1B Rocket - Visible Passes

Search period start: 29 November 2023 00:00
Search period end: 09 December 2023 00:00
Orbit: 920 x 1201 km, 28.2° (Epoch: 28 November)

Date Brightness Start Highest point End Pass type
(mag) Time Alt. Az. Time Alt. Az. Time Alt. Az.
29 Nov 6.6 18:47:59 10° WSW 18:53:11 27° SSW 18:58:19 11° SE visible
29 Nov 7.5 20:43:50 10° SW 20:44:42 11° SW 20:44:42 11° SW visible
30 Nov 6.5 17:46:52 10° WSW 17:52:17 31° SSW 17:57:54 10° SE visible
30 Nov 7.2 19:41:15 10° WSW 19:44:58 16° SSW 19:47:52 12° S visible
01 Dec 7.0 18:39:35 10° WSW 18:44:05 21° SSW 18:48:45 10° SSE visible
02 Dec 6.9 17:38:13 10° WSW 17:43:14 25° SSW 17:48:22 10° SE visible
02 Dec 7.6 19:35:04 10° SW 19:35:48 10° SSW 19:36:33 10° SSW visible
03 Dec 7.4 18:31:39 10° WSW 18:34:58 15° SSW 18:38:20 10° S visible
04 Dec 7.3 17:29:49 10° WSW 17:34:08 20° SSW 17:38:31 10° SSE visible
